Find Starlink 31744

NORAD ID: 59494 Int'l Des: 2024-071 Owner: SPXS Country: US Constellation: starlink operational
LEOCIRCULAR

Current View

Loading 3D Globe...

About Starlink 31744

Starlink 31744 (NORAD 59494) is a starlink constellation satellite (v2 mini) launched Apr 13, 2024 by SPXS of US. It operates in LEO, CIRCULAR orbit with a mass of 730.00 kg.

About Starlink 31744

Description loading...

Upcoming Passes

Passes for default location (London). Set your location on the main map for personalized predictions.

Altitude History

Loading altitude history...

Two-Line Element Set

1 59494U 24071L 26171.19360750 .00000032 00000-0 10688-4 0 9995
2 59494 43.0015 128.5232 0000995 272.5013 87.5724 15.27576396123798
Epoch: Jun 20, 2026 • Age: 11 hours

Current Status

Altitude 491.4 km
Velocity 7.62 km/s
Sub-Earth Point -32.16°S, 56.11°W
Launch Date Apr 13, 2024
Age 2.1 years
Type internet

Technical Details

Classification Payload
Mass 730.00 kg
Dry Mass 700.00 kg
Total Mass 730.00 kg
Length 0.30 m
Diameter 4.10 m
Span 29.00 m
Shape Box + pan
Manufacturer SPXS
Bus Type Starlink V2M
Phase Status In Orbit
Owner/State SPXS/US

Most Searched